Tracking 19246 objects as of 20-Aug-2018
HD Live streaming from Space Station
objects crossing your sky now

ORBCOMM FM 4

Track ORBCOMM FM 4 now!
10-day predictions
ORBCOMM FM 4 is classified as:


NORAD ID: 25159
Int'l Code: 1998-007C
Perigee: 767.6 km
Apogee: 833.1 km
Inclination: 108.0 °
Period: 100.7 minutes
Semi major axis: 7171 km
RCS: 1.0023 m2 (large)
Launch date: February 10, 1998
Source: ORBCOMM (ORB)
Launch site: AIR FORCE WESTERN TEST RANGE (AFWTR)
aabbcc
Your satellite tracking list
Your tracking list is empty




NASA's NSSDC Master Catalog

Two Line Element Set (TLE):
1 25159U 98007C   18231.54789693  .00000013  00000-0  56088-4 0  9997
2 25159 107.9979  81.1312 0045657 256.7515 102.8526 14.29564617 67653
Source of the keplerian elements: AFSPC